Regional Weather Roundup
Issued by NWS Sterling, VA

Home | Current Version | Previous Version | Graphics & Text | Print | Product List | Glossary On
Versions: 1 2 3 4 5 6 7 8 9 10 11 12 13 14 15 16 17 18 19 20 21 22 23 24 25 26 27 28 29 30 31 32 33 34 35 36 37 38 39 40 41 42 43 44 45 46 47 48 49 50
000
ASUS41 KLWX 210210
RWRLWX

REGIONAL WEATHER ROUNDUP
NATIONAL WEATHER SERVICE BALTIMORE MD/WASHINGTON DC
1000 PM EDT WED AUG 20 2014

Note: "FAIR" indicates few or no clouds below 12,000 feet
with no significant weather and/or obstructions to visibility.
 TC=TEMPERATURE CELSIUS

 * =Non NWS site. Station does not report precipitation (e.g. rain,
    snow, etc.), thunder, or fog.

DCZ001-MDZ009-015-VAZ040>042-051-053>054-210300-
WASHINGTON METRO
  /KDAA//-FT BELVOIR

CITY           SKY/WX    TMP DP  RH WIND       PRES   REMARKS
WASHINGTON NAT MOCLDY    74  66  76 CALM      30.00R
DULLES         PTCLDY    67  65  93 CALM      30.01R
ANDREWS AFB    MOCLDY    69  66  93 N2        30.00R
QUANTICO       MOCLDY    71  69  93 NW8       30.01R
COLLEGE PARK*    N/A     70  70 100 CALM      29.99R VSB 3/4
LEESBURG*      PTCLDY    68  68 100 CALM      30.01S
MANASSAS*      PTCLDY    70  68  94 CALM      30.01R
GAITHERSBURG*  CLEAR     66  64  94 CALM      30.05R

$$

MDZ006>007-011-014-210300-
BALTIMORE METRO

CITY           SKY/WX    TMP DP  RH WIND       PRES   REMARKS
BWI AIRPORT    MOCLDY    70  67  90 CALM      29.98R
MD SCIENCE CTR   N/A     77  65  66 MISG      29.99R
MARTIN STATE   PTCLDY    79  70  73 CALM      30.00R
ANNAPOLIS        N/A     75  63  66 S3        29.98R
FORT MEADE*    MOCLDY    66  64  94 CALM      30.01R

$$

MDZ012-015-019>023-210300-
MARYLAND EASTERN SHORE

CITY           SKY/WX    TMP DP  RH WIND       PRES   REMARKS
OCEAN CITY     PTCLDY    73  66  78 E9        29.98F
SALISBURY      PTCLDY    72  63  73 E6        29.99R
BAY BRIDGE AP*   N/A     77  63  61 SE7       29.99R
CAMBRIDGE*     MOCLDY    72  61  68 CALM      30.00R

$$

MDZ017>025-210300-
SOUTHERN MARYLAND

CITY           SKY/WX    TMP DP  RH WIND       PRES   REMARKS
PATUXENT RIVER MOCLDY    75  65  70 CALM      29.98R
ST INIGOES     PTCLDY    76  66  71 SE3       29.98R
LEONARDTOWN*   PTCLDY    73  61  64 CALM      30.00R

$$

MDZ003>005-210300-
NORTH CENTRAL MARYLAND

CITY           SKY/WX    TMP DP  RH WIND       PRES   REMARKS
FREDERICK*     PTCLDY   N/A N/A N/A CALM      30.03R FOG
HAGERSTOWN APT CLEAR     71  65  81 S7        30.00S
WESTMINSTER*   CLEAR     72  66  83 CALM      30.01S

$$

MDZ501>502-210300-
WESTERN MARYLAND

CITY           SKY/WX    TMP DP  RH WIND       PRES   REMARKS
OAKLAND*       PTCLDY    64 N/A N/A SW6       30.11R
CUMBERLAND*    PTCLDY    75  66  73 CALM      30.04R

$$

VAZ025>031-210300-
SHENANDOAH VALLEY

CITY           SKY/WX    TMP DP  RH WIND       PRES   REMARKS
WINCHESTER*    CLEAR     70  66  88 CALM      30.01R
STAUNTON*      PTCLDY    70  67  91 CALM      30.06R

$$

WVZ021-048>050-054>055-210300-
EASTERN WEST VIRGINIA PANHANDLE

CITY           SKY/WX    TMP DP  RH WIND       PRES   REMARKS
MARTINSBURG    CLEAR     69  66  90 CALM      30.01R
PETERSBURG*    NOT AVBL

$$

VAZ036>039-050-210300-
CENTRAL FOOTHILLS

CITY           SKY/WX    TMP DP  RH WIND       PRES   REMARKS
CHARLOTTESVILL LGT RAIN  69  67  93 SW3       30.03S
ORANGE*        CLOUDY    70  68  94 SW3       30.04R

$$

VAZ055>057-210300-
NORTH AND CENTRAL PIEDMONT

CITY           SKY/WX    TMP DP  RH WIND       PRES   REMARKS
FREDERICKSBRG* MOCLDY    71  71 100 NW3       29.99R
STAFFORD*      MOCLDY    67  67 100 CALM      30.04R

$$

NCZ024-NYZ072-PAZ021-071-VAZ022-071-210300-
OTHER REGIONAL OBSERVATIONS

CITY           SKY/WX    TMP DP  RH WIND       PRES   REMARKS
NEW YORK CITY  PTCLDY    73  58  59 VRB3      30.04S
PHILADELPHIA   CLOUDY    74  61  63 SE6       30.00S
PITTSBURGH     PTCLDY    68  66  93 CALM      29.99R
ROANOKE        PTCLDY    76  67  73 NW6       30.06R
RICHMOND       MOCLDY    76  69  79 S7        29.98S
RALEIGH        PTCLDY    71  68  90 CALM      30.02R

$$

ANZ530>537-210300-
MARINE OBSERVATIONS

STATION/POSITION TIME  TEMP    WIND        PRES
                       AIR SEA DIR/SP/G
                 (UTC) (F)     (DEG/KT/KT) (MB)
THOMAS PT LIGHT  0200   78 78  150/ 11/ 13 1015.7R
BALT KEY BRIDGE  0200   77     130/  5/  6 1014.9S
COVE POINT       0200   77     170/ 14/ 17 1014.7R
LEWISETTA        0200   75 80  160/  4/  6 1014.6R
SOLOMONS ISLAND  0200      80                N/A
PINEY POINT      0200          190/ 10/ 11   N/A

$$




USA.gov is the U.S. government's official web portal to all federal, state and local government web resources and services.